Ephrata, WA

10:50 PM PST on November 17, 2017 (GMT -0800)
Ephrata Municipal

Weather History for KEPH - March, 2013

Change the Weather History Date:

Thursday, March 21, 2013

  Actual Average Record
Temperature  
Mean Temperature 38 °F 45 °F  
Max Temperature 50 °F 56 °F 71 °F (1960)
Min Temperature 25 °F 33 °F 23 °F (2001)
Degree Days  
Heating Degree Days 27 20  
Month to date heating degree days 466 494  
Since 1 July heating degree days 4699 5067  
Cooling Degree Days 0 0  
Month to date cooling degree days 0 0  
Year to date cooling degree days 0 0  
Moisture  
Dew Point 20 °F    
Average Humidity 54    
Maximum Humidity 81    
Minimum Humidity 26    
Precipitation  
Precipitation 0.00 in 0.02 in 0.47 in (1975)
Month to date precipitation 0.54 0.49  
Year to date precipitation 0.89 2.14  
Sea Level Pressure  
Sea Level Pressure 30.01 in    
Wind  
Wind Speed 11 mph (WSW)    
Max Wind Speed 23 mph    
Max Gust Speed 28 mph    
Visibility 10 miles    
Events      
T = Trace of Precipitation, MM = Missing Value Source: NWS Daily Summary

Daily Weather History Graph

Daily Weather History Graph

Search for Another Location

Airport or City:

Trip Planner

Search our weather history database for the weather conditions in past years. The results will help you decide how hot, cold, wet, or windy it might be!

Date:

Astronomy

Mar. 21, 2013 Rise Set
Actual Time 6:58 AM PDT 7:12 PM PDT
Civil Twilight 6:27 AM PDT 7:43 PM PDT
Nautical Twilight 5:51 AM PDT 8:19 PM PDT
Astronomical Twilight 5:14 AM PDT 8:56 PM PDT
Moon 1:28 PM PDT (3/21) 3:43 AM PDT (3/21)
Length of Visible Light 13h 15m
Length of Day
12h 14m
Waxing Gibbous, 69% of the Moon is Illuminated
Mar 21
Waxing Gibbous
Mar 27
Full
Apr 2
Last Quarter
Apr 10
New
Apr 18
First Quarter

Hourly Weather History & Observations

Time (PDT) Temp. Windchill Dew Point Humidity Pressure Visibility Wind Dir Wind Speed Gust Speed Precip Events Conditions
12:53 AM 39.0 °F 31.4 °F 17.1 °F 41% 29.85 in 10.0 mi West 12.7 mph - N/A   Clear
1:53 AM 37.9 °F 29.6 °F 18.0 °F 45% 29.87 in 10.0 mi West 13.8 mph - N/A   Clear
2:53 AM 33.1 °F 26.9 °F 21.0 °F 61% 29.91 in 10.0 mi SW 6.9 mph - N/A   Mostly Cloudy
3:53 AM 32.0 °F 23.6 °F 19.9 °F 61% 29.94 in 10.0 mi SW 10.4 mph - N/A   Mostly Cloudy
4:53 AM 28.0 °F 22.8 °F 21.0 °F 75% 29.96 in 10.0 mi SSW 4.6 mph - N/A   Clear
5:53 AM 27.0 °F 17.3 °F 21.0 °F 78% 29.98 in 10.0 mi SSW 10.4 mph - N/A   Clear
6:53 AM 28.9 °F 21.1 °F 21.0 °F 72% 29.99 in 10.0 mi WSW 8.1 mph - N/A   Clear
7:53 AM 34.0 °F 27.2 °F 21.9 °F 61% 30.01 in 10.0 mi SW 8.1 mph - N/A   Clear
8:53 AM 39.0 °F 33.4 °F 21.9 °F 50% 30.02 in 10.0 mi SW 8.1 mph - N/A   Clear
9:53 AM 42.1 °F 35.2 °F 19.9 °F 41% 30.03 in 10.0 mi WSW 12.7 mph - N/A   Clear
10:53 AM 45.0 °F 42.6 °F 18.0 °F 34% 30.05 in 10.0 mi Variable 4.6 mph - N/A   Clear
11:53 AM 46.0 °F 41.9 °F 17.1 °F 31% 30.05 in 10.0 mi West 8.1 mph - N/A   Mostly Cloudy
12:53 PM 46.9 °F - 16.0 °F 29% 30.05 in 10.0 mi West 12.7 mph - N/A   Overcast
1:53 PM 44.1 °F 37.4 °F 18.0 °F 35% 30.05 in 10.0 mi West 13.8 mph - N/A   Mostly Cloudy
2:53 PM 48.9 °F - 19.0 °F 31% 30.02 in 10.0 mi SW 16.1 mph 21.9 mph N/A   Overcast
3:09 PM 48.2 °F - 17.6 °F 30% 29.99 in 10.0 mi West 9.2 mph 20.7 mph N/A   Overcast
3:53 PM 48.0 °F - 19.9 °F 33% 30.02 in 10.0 mi WSW 16.1 mph 20.7 mph N/A   Mostly Cloudy
4:53 PM 48.9 °F - 16.0 °F 27% 30.02 in 10.0 mi WNW 13.8 mph 19.6 mph N/A   Clear
5:53 PM 43.0 °F 35.1 °F 21.9 °F 43% 30.04 in 10.0 mi West 17.3 mph 26.5 mph N/A   Partly Cloudy
6:53 PM 41.0 °F 33.1 °F 21.9 °F 47% 30.03 in 10.0 mi West 15.0 mph 24.2 mph N/A   Clear
7:53 PM 39.9 °F 31.1 °F 21.0 °F 47% 30.02 in 10.0 mi West 17.3 mph - N/A   Scattered Clouds
8:53 PM 37.0 °F 30.4 °F 21.9 °F 54% 30.05 in 10.0 mi SW 9.2 mph - N/A   Clear
9:53 PM 37.0 °F 32.4 °F 21.9 °F 54% 30.06 in 10.0 mi SW 5.8 mph - N/A   Clear
10:53 PM 37.9 °F 30.0 °F 18.0 °F 45% 30.06 in 10.0 mi NNW 12.7 mph - N/A   Clear
11:53 PM 37.9 °F 30.0 °F 18.0 °F 45% 30.07 in 10.0 mi NW 12.7 mph - N/A   Overcast